• en France
  • Liste des pays
  • À 7 jours
  • Température de l'eau
  • Carte satellitaire
  • Carte météo
  • Widgets météo
  • user-avatar
    Se connecter

    Météo par heure à Filippkovo

    Ce jour, 20 Septembre, Jeudi

    Heure Température Précipitation Vent Pression Humidité
    00:00 +16°C° 0 mm 3 m/s 752 mmHg 91%
    01:00 +14°C° 0 mm 3 m/s 753 mmHg 93%
    02:00 +13°C° 0 mm 3 m/s 753 mmHg 95%
    03:00 +13°C° 0 mm 3 m/s 753 mmHg 96%
    04:00 +13°C° 0 mm 2 m/s 753 mmHg 96%
    05:00 +13°C° 0 mm 2 m/s 754 mmHg 97%
    06:00 +14°C° 0 mm 2 m/s 754 mmHg 93%
    07:00 +14°C° 0 mm 3 m/s 754 mmHg 90%
    08:00 +14°C° 0 mm 3 m/s 754 mmHg 86%
    09:00 +17°C° 0 mm 3 m/s 754 mmHg 79%
    10:00 +19°C° 0 mm 3 m/s 755 mmHg 72%
    11:00 +21°C° 0 mm 3 m/s 755 mmHg 65%
    12:00 +21°C° 0 mm 3 m/s 755 mmHg 63%
    13:00 +22°C° 0 mm 3 m/s 754 mmHg 61%
    14:00 +24°C° 0 mm 3 m/s 754 mmHg 59%
    15:00 +22°C° 0 mm 3 m/s 754 mmHg 64%
    16:00 +22°C° 0 mm 3 m/s 754 mmHg 68%
    17:00 +21°C° 0 mm 2 m/s 754 mmHg 73%
    18:00 +20°C° 0 mm 2 m/s 754 mmHg 78%
    19:00 +19°C° 0 mm 2 m/s 754 mmHg 82%
    20:00 +17°C° 0 mm 2 m/s 755 mmHg 86%
    21:00 +17°C° 0 mm 2 m/s 755 mmHg 88%
    22:00 +17°C° 0 mm 2 m/s 755 mmHg 90%
    23:00 +16°C° 0 mm 2 m/s 755 mmHg 91%

    Demain, 21 Septembre, Vendredi

    Heure Température Précipitation Vent Pression Humidité
    00:00 +16°C° 0 mm 2 m/s 755 mmHg 93%
    01:00 +16°C° 0 mm 2 m/s 755 mmHg 95%
    02:00 +16°C° 0 mm 2 m/s 755 mmHg 97%
    03:00 +16°C° 0 mm 2 m/s 755 mmHg 97%
    04:00 +16°C° 0 mm 2 m/s 755 mmHg 97%
    05:00 +15°C° 0 mm 2 m/s 755 mmHg 97%
    06:00 +16°C° 0 mm 3 m/s 755 mmHg 93%
    07:00 +17°C° 0 mm 3 m/s 755 mmHg 90%
    08:00 +18°C° 0 mm 3 m/s 755 mmHg 86%
    09:00 +20°C° 0 mm 3 m/s 755 mmHg 79%
    10:00 +21°C° 0 mm 3 m/s 755 mmHg 71%
    11:00 +24°C° 0 mm 3 m/s 755 mmHg 63%
    12:00 +25°C° 0.1 mm 3 m/s 755 mmHg 62%
    13:00 +25°C° 0.1 mm 4 m/s 754 mmHg 61%
    14:00 +26°C° 0.1 mm 4 m/s 754 mmHg 60%
    15:00 +26°C° 0 mm 3 m/s 754 mmHg 64%
    16:00 +25°C° 0 mm 3 m/s 753 mmHg 67%
    17:00 +24°C° 0 mm 2 m/s 753 mmHg 71%
    18:00 +22°C° 0 mm 3 m/s 753 mmHg 73%
    19:00 +21°C° 0 mm 3 m/s 752 mmHg 75%
    20:00 +21°C° 0 mm 4 m/s 752 mmHg 78%
    21:00 +20°C° 0 mm 4 m/s 752 mmHg 77%
    22:00 +20°C° 0 mm 4 m/s 751 mmHg 76%
    23:00 +20°C° 0 mm 4 m/s 751 mmHg 76%

    Après-demain, 22 Septembre, Samedi

    Heure Température Précipitation Vent Pression Humidité
    00:00 +19°C° 0 mm 5 m/s 750 mmHg 74%
    01:00 +19°C° 0 mm 5 m/s 750 mmHg 71%
    02:00 +19°C° 0 mm 5 m/s 749 mmHg 69%
    03:00 +19°C° 0 mm 5 m/s 748 mmHg 69%
    04:00 +19°C° 0 mm 5 m/s 748 mmHg 69%
    05:00 +19°C° 0 mm 5 m/s 747 mmHg 68%
    06:00 +17°C° 0.2 mm 5 m/s 748 mmHg 71%
    07:00 +17°C° 0.2 mm 5 m/s 748 mmHg 74%
    08:00 +16°C° 0.2 mm 5 m/s 748 mmHg 77%
    09:00 +15°C° 0.9 mm 5 m/s 748 mmHg 81%
    10:00 +13°C° 0.9 mm 4 m/s 748 mmHg 84%
    11:00 +12°C° 0.9 mm 3 m/s 749 mmHg 88%
    12:00 +12°C° 0.1 mm 3 m/s 749 mmHg 84%
    13:00 +13°C° 0.1 mm 4 m/s 749 mmHg 80%
    14:00 +14°C° 0.1 mm 4 m/s 749 mmHg 75%
    15:00 +14°C° 0.1 mm 4 m/s 749 mmHg 76%
    16:00 +13°C° 0.1 mm 4 m/s 749 mmHg 76%
    17:00 +13°C° 0.1 mm 4 m/s 749 mmHg 76%
    18:00 +13°C° 0.1 mm 3 m/s 749 mmHg 78%
    19:00 +12°C° 0.1 mm 3 m/s 749 mmHg 79%
    20:00 +11°C° 0.1 mm 3 m/s 749 mmHg 81%
    21:00 +10°C° 0 mm 3 m/s 749 mmHg 82%
    22:00 +10°C° 0 mm 3 m/s 749 mmHg 84%
    23:00 +9°C° 0 mm 3 m/s 749 mmHg 86%

    23 Septembre, Dimanche

    Heure Température Précipitation Vent Pression Humidité
    00:00 +9°C° 0 mm 3 m/s 749 mmHg 87%
    01:00 +8°C° 0 mm 3 m/s 749 mmHg 89%
    02:00 +8°C° 0 mm 3 m/s 749 mmHg 91%
    03:00 +8°C° 0 mm 3 m/s 749 mmHg 91%
    04:00 +7°C° 0 mm 3 m/s 749 mmHg 92%
    05:00 +7°C° 0 mm 3 m/s 748 mmHg 92%
    06:00 +7°C° 0 mm 4 m/s 748 mmHg 88%
    07:00 +8°C° 0 mm 4 m/s 748 mmHg 84%
    08:00 +10°C° 0 mm 4 m/s 748 mmHg 81%
    09:00 +10°C° 0 mm 4 m/s 748 mmHg 79%
    10:00 +11°C° 0 mm 4 m/s 747 mmHg 76%
    11:00 +11°C° 0 mm 4 m/s 747 mmHg 74%
    12:00 +12°C° 0.2 mm 5 m/s 747 mmHg 72%
    13:00 +13°C° 0.2 mm 5 m/s 747 mmHg 69%
    14:00 +13°C° 0.2 mm 5 m/s 746 mmHg 66%
    15:00 +13°C° 0.2 mm 4 m/s 746 mmHg 70%
    16:00 +12°C° 0.2 mm 4 m/s 746 mmHg 75%
    17:00 +11°C° 0.2 mm 3 m/s 746 mmHg 79%
    18:00 +10°C° 0.1 mm 3 m/s 747 mmHg 82%
    19:00 +10°C° 0.1 mm 3 m/s 747 mmHg 86%
    20:00 +9°C° 0.1 mm 3 m/s 747 mmHg 90%
    21:00 +8°C° 0 mm 3 m/s 747 mmHg 91%
    22:00 +8°C° 0 mm 3 m/s 747 mmHg 93%
    23:00 +8°C° 0 mm 3 m/s 747 mmHg 94%

    24 Septembre, Lundi

    Heure Température Précipitation Vent Pression Humidité
    00:00 +7°C° 0 mm 3 m/s 747 mmHg 95%
    01:00 +7°C° 0 mm 2 m/s 748 mmHg 96%
    02:00 +7°C° 0 mm 2 m/s 748 mmHg 97%
    03:00 +6°C° 0 mm 2 m/s 748 mmHg 97%
    04:00 +6°C° 0 mm 2 m/s 748 mmHg 97%
    05:00 +6°C° 0 mm 2 m/s 748 mmHg 98%
    06:00 +6°C° 0 mm 2 m/s 747 mmHg 96%
    07:00 +7°C° 0 mm 2 m/s 747 mmHg 94%
    08:00 +8°C° 0 mm 2 m/s 747 mmHg 92%
    09:00 +9°C° 0 mm 2 m/s 747 mmHg 87%
    10:00 +10°C° 0 mm 2 m/s 747 mmHg 82%
    11:00 +12°C° 0 mm 2 m/s 746 mmHg 77%
    12:00 +11°C° 0 mm 3 m/s 746 mmHg 75%
    13:00 +12°C° 0 mm 3 m/s 745 mmHg 73%
    14:00 +12°C° 0 mm 3 m/s 744 mmHg 71%
    15:00 +11°C° 1.2 mm 3 m/s 743 mmHg 77%
    16:00 +10°C° 1.2 mm 4 m/s 743 mmHg 84%
    17:00 +8°C° 1.2 mm 4 m/s 742 mmHg 90%
    18:00 +8°C° 1.2 mm 4 m/s 741 mmHg 90%
    19:00 +7°C° 1.2 mm 5 m/s 740 mmHg 91%
    20:00 +7°C° 1.2 mm 5 m/s 739 mmHg 91%
    21:00 +7°C° 1.4 mm 5 m/s 738 mmHg 92%
    22:00 +7°C° 1.4 mm 5 m/s 737 mmHg 92%
    23:00 +6°C° 1.4 mm 5 m/s 736 mmHg 93%

    25 Septembre, Mardi

    Heure Température Précipitation Vent Pression Humidité
    00:00 +6°C° 2.9 mm 5 m/s 735 mmHg 94%
    01:00 +6°C° 2.9 mm 5 m/s 734 mmHg 94%
    02:00 +5°C° 2.9 mm 6 m/s 733 mmHg 95%
    03:00 +5°C° 1.9 mm 6 m/s 733 mmHg 94%
    04:00 +5°C° 1.9 mm 6 m/s 732 mmHg 94%
    05:00 +5°C° 1.9 mm 6 m/s 732 mmHg 93%
    06:00 +5°C° 1.4 mm 6 m/s 732 mmHg 93%
    07:00 +5°C° 1.4 mm 6 m/s 732 mmHg 93%
    08:00 +5°C° 1.4 mm 6 m/s 732 mmHg 92%
    09:00 +5°C° 1.3 mm 6 m/s 733 mmHg 92%
    10:00 +5°C° 1.3 mm 7 m/s 733 mmHg 91%
    11:00 +5°C° 1.3 mm 7 m/s 734 mmHg 91%
    12:00 +5°C° 1.3 mm 7 m/s 735 mmHg 90%
    13:00 +5°C° 1.3 mm 8 m/s 735 mmHg 90%
    14:00 +5°C° 1.3 mm 8 m/s 736 mmHg 90%
    15:00 +5°C° 1 mm 8 m/s 737 mmHg 89%
    16:00 +5°C° 1 mm 8 m/s 738 mmHg 88%
    17:00 +5°C° 1 mm 8 m/s 739 mmHg 88%
    18:00 +4°C° 0.6 mm 8 m/s 740 mmHg 87%
    19:00 +4°C° 0.6 mm 8 m/s 741 mmHg 87%
    20:00 +4°C° 0.6 mm 8 m/s 741 mmHg 87%
    21:00 +4°C° 0.3 mm 7 m/s 742 mmHg 88%
    22:00 +4°C° 0.3 mm 7 m/s 743 mmHg 88%
    23:00 +4°C° 0.3 mm 7 m/s 743 mmHg 88%
    Voir plus